Location: Newark
(40.4167°S, 176.3000°E)
Time: 16:42:00
(UTC+00:00)

ISS - Visible Passes

Search period start: 16 October 2019 00:00
Search period end: 26 October 2019 00:00
Orbit: 411 x 421 km, 51.6° (Epoch: 16 October)

Date Brightness Start Highest point End Pass type
(mag) Time Alt. Az. Time Alt. Az. Time Alt. Az.
16 Oct -3.2 15:21:00 57° SSE 15:21:01 57° SSE 15:24:24 10° ENE visible
16 Oct -2.0 16:55:12 10° W 16:57:27 16° NW 16:59:41 10° N visible
17 Oct -1.3 08:00:19 10° N 08:00:31 11° N 08:00:31 11° N visible
17 Oct -2.8 16:08:51 28° NW 16:09:03 28° NW 16:12:01 10° NNE visible
18 Oct -1.8 07:13:00 10° NNE 07:14:39 13° NE 07:16:11 10° ENE visible
18 Oct -1.9 08:47:37 10° WNW 08:49:13 26° WNW 08:49:13 26° WNW visible
19 Oct -3.9 07:59:05 10° NW 08:02:25 67° NE 08:04:25 22° ESE visible
19 Oct -0.6 09:36:41 10° WSW 09:37:26 14° WSW 09:37:26 14° WSW visible
20 Oct -3.1 07:10:48 10° NNW 07:13:56 36° NE 07:17:05 10° ESE visible
20 Oct -1.8 08:47:40 10° W 08:50:42 30° SSW 08:52:07 22° SSE visible
21 Oct -2.6 07:58:46 10° WNW 08:02:02 45° SSW 08:05:20 10° SE visible
21 Oct -0.7 09:37:22 10° SW 09:39:16 15° SSW 09:39:16 15° SSW visible
22 Oct -3.5 07:10:04 10° WNW 07:13:26 76° SW 07:16:50 10° SE visible
22 Oct -1.0 08:48:12 10° WSW 08:50:38 18° SSW 08:53:04 10° SSE visible
23 Oct -1.3 07:59:04 10° WSW 08:01:51 23° SSW 08:04:39 10° SSE visible
23 Oct -0.6 09:37:57 10° SSW 09:39:33 13° S 09:39:42 13° S visible
24 Oct -1.9 07:10:03 10° W 07:13:07 32° SSW 07:16:14 10° SE visible
24 Oct -0.8 08:48:54 10° SW 08:50:41 13° S 08:52:28 10° SSE visible
25 Oct -0.9 07:59:44 10° SW 08:01:50 15° SSW 08:03:58 10° SSE visible
25 Oct -0.7 09:37:53 10° SSW 09:39:27 13° S 09:39:27 13° S visible
